Regional Weather Roundup
Issued by NWS Newport/Morehead, NC

Current Version | Previous Version | Text Only | Print | Product List | Glossary On
Versions: 1 2 3 4 5 6 7 8 9 10 11 12 13 14 15 16 17 18 19 20 21 22 23 24 25 26 27 28 29 30 31 32 33 34 35 36 37 38 39 40 41 42 43 44 45 46 47 48 49 50
000
ASUS42 KMHX 240125
RWRMHX
WEATHER ROUNDUP FOR EASTERN NORTH CAROLINA
NATIONAL WEATHER SERVICE NEWPORT/MOREHEAD CITY NC
900 PM EDT THU MAR 23 2017

NOTE: "FAIR" INDICATES FEW OR NO CLOUDS BELOW 12,000 FEET
WITH NO SIGNIFICANT WEATHER AND/OR OBSTRUCTIONS TO VISIBILITY

NCZ015>017-031-032-045>047-102-103-240200-
NORTH COAST

CITY           SKY/WX    TMP DP  RH WIND       PRES   REMARKS
EDENTON        CLEAR     39  28  64 SE7       30.59R
ELIZABETH CITY CLEAR     36  25  64 E7        30.59S
KITTY HAWK     NOT AVBL
MANTEO         CLEAR     36  26  67 CALM      30.61R

$$

NCZ045>047-081-094-103-104-240200-
CENTRAL COAST

CITY           SKY/WX    TMP DP  RH WIND       PRES   REMARKS
FRISCO         CLEAR     40  30  67 NE6       30.59R

$$

NCZ095-097-098-100-101-240200-
SOUTHERN COAST

CITY           SKY/WX    TMP DP  RH WIND       PRES   REMARKS
BEAUFORT       CLEAR     42  31  64 NE3       30.59R
CEDAR ISLAND   NOT AVBL
JACKSONVILLE   CLEAR     46  29  51 E9        30.56R
PINEY ISLAND   CLEAR    N/A N/A N/A E10       30.58R
WILMINGTON     CLEAR     47  30  51 E5        30.55R


$$

NCZ011>013-027>030-043-044-078>080-089-090>093-098-240200-
COASTAL PLAIN

CITY           SKY/WX    TMP DP  RH WIND       PRES   REMARKS
AHOSKIE          N/A     39  27  62 E6        30.57R
CLINTON        CLEAR     46  33  61 CALM      30.55R
ELIZABETHTOWN  CLEAR     47  34  60 SE3       30.53S
GOLDSBORO      CLEAR     44  27  52 E3        30.52S
GREENVILLE     CLEAR     43  27  52 SE3       30.56R
HAVELOCK       CLEAR     39  31  72 E3        30.59R
KENANSVILLE    CLEAR     45  32  61 CALM      30.55R
KINSTON        CLEAR     46  27  46 E6        30.56R
NEW BERN       CLEAR     42  34  73 SE10      30.58R
RICHLANDS      CLEAR     43  31  62 E5        30.56R
ROCKY MOUNT    CLEAR     39  30  70 CALM      30.55R
WASHINGTON     CLEAR     40  26  58 E6        30.58R
WHITEVILLE     CLEAR     48  32  54 E6        30.53R

$$

AMZ130-135-150-152-154-156-158-170-250-252-270-ANZ085-086-088-633-658-670-240200-
MARINE OBSERVATIONS

STATION/POSITION TIME  TEMP    WIND        PRES    WAVE   SWELL
                       AIR SEA DIR/SP/G            HT/PER HT/PER
                 (UTC) (F)     (DEG/KT/KT) (MB)    (FT/S) (FT/S)
CHESAPEAKE LIGHT NOT AVBL
64 E VA BEACH    0050   40 49   60/  6/  8 1035.7    4/ 7   5/ 7
DUCK             0100   38 48   70/  6/ 10 1035.6
2 E DUCK         0100      47                N/A     4/ 8   2/11
OREGON INLET     0100   39 49   50/  6/  7 1036.3
13E OREGON INLT  NOT AVBL
HATTERAS CG      0100   41 52   40/  6/  9 1035.3
DIAMOND BUOY     0050   49 73   40/ 10/ 14 1035.4    8/11   8/11
CAPE LOOKOUT     0100   47      40/ 10/ 12 1035.1
BEAUFORT LAB     0100   42 52   40/  4/  5 1034.7
30 SE NEW RVR IN 0108   51      70/ 12/ 17 1034.6
30 SE NEW RVR IN 0113      68                N/A     5/12   2/12
27 SE WRIGHTSVLE 0108   52 61   90/ 14/ 19 1033.2
5 SE WRIGHTSVLE  0108   51 56  100/ 14/ 21 1034.2
225 S CAPE HAT   0050   62 72   50/ 19/ 25 1031.0    7/11   5/11
41 SE CHARLESTON 0050   62 71   60/ 19/ 23 1030.7    7/ 7   2/ 8

$$




USA.gov is the U.S. government's official web portal to all federal, state and local government web resources and services.